Погода в Ин-Аменасе

Алжир     28°02′16″N   9°33′25″E
темп.,
°C
ветер,
м/с
пор.,
м/с
влажн.,
%
обл.,
%
осадки,
мм/ч
давл.,
гПа
погр.,
м
12 апреля, пн
пн1201:00+24в332991 0.2 101027
04:00+24вюв45262 0.4 100947
07:00+24ююв452056 0.4 101172
10:00+31юз67130 0.0 10111045
13:00+34з8980 0.0 10103131
16:00+33сз9990 0.0 10093167
19:00+28ссз6111320 0.0 1012157
22:00+25с713230 0.0 1015266
13 апреля, вт
вт1301:00+22с712350 0.0 1015246
04:00+19с712445 0.0 1015195
07:00+18ссв610506 0.0 1017279
10:00+26ссв552076 0.0 1017749
13:00+30ссз54971 0.0 10152158
16:00+30с769100 0.0 10142389
19:00+26ссв81118100 0.0 1016303
22:00+23ссв91427100 0.0 1017375
14 апреля, ср
ср1401:00+19св71140100 0.0 1017264
04:00+17всв7124955 0.0 1017329
07:00+16всв69525 0.0 1019332
10:00+22в77345 0.0 1019726
13:00+27в4422100 0.0 10161412
16:00+29в4417100 0.0 10131733
19:00+26в442035 0.0 101333
22:00+23в5112352 0.0 1015158
15 апреля, чт
чт1501:00+21в71323100 0.0 1014275
04:00+18вюв7142443 0.0 1014285
07:00+18вюв916266 0.0 1014442
10:00+25вюв111220100 0.0 1014726
13:00+32юв891346 0.0 10101278
16:00+35юв561010 0.0 10072406
19:00+31вюв691380 0.0 100693
22:00+30ююв813140 0.0 1007177
16 апреля, пт
пт1601:00+27ююз7132141 0.0 1007183
04:00+27ю6102266 0.0 1005105
07:00+26ю5102363 0.0 1006170
10:00+34зюз681265 0.0 1006743
13:00+39зюз916788 0.0 10044509
16:00+39з1016699 0.0 10024548
19:00+35зсз711899 0.0 1002156
22:00+30ссз569100 0.0 100664